Change the Weather History Date:

Saturday, December 22, 2012

  Actual Average Record
Temperature  
Mean Temperature 30 °F 37 °F  
Max Temperature 38 °F 46 °F 70 °F (2013)
Min Temperature 22 °F 28 °F -11 °F (1989)
Degree Days  
Heating Degree Days 35 28  
Month to date heating degree days 407 564  
Since 1 July heating degree days 1461 1394  
Cooling Degree Days 0 0  
Month to date cooling degree days 0 0  
Year to date cooling degree days 1226 1190  
Moisture  
Dew Point 18 °F    
Average Humidity 64    
Maximum Humidity 84    
Minimum Humidity 44    
Precipitation  
Precipitation 0.00 in 0.13 in 1.64 in (1990)
Month to date precipitation 4.61 3.10  
Year to date precipitation 44.73 46.00  
Sea Level Pressure  
Sea Level Pressure 30.23 in    
Wind  
Wind Speed 5 mph (WSW)    
Max Wind Speed 14 mph    
Max Gust Speed 16 mph    
Visibility 10 miles    
Events      
T = Trace of Precipitation, MM = Missing Value Source: NWS Daily Summary

Daily Weather History Graph

Daily Weather History Graph

Search for Another Location

Airport or City:

Trip Planner

Search our weather history database for the weather conditions in past years. The results will help you decide how hot, cold, wet, or windy it might be!

Date:

Astronomy

Dec. 22, 2012 Rise Set
Actual Time 7:46 AM EST 5:23 PM EST
Civil Twilight 7:17 AM EST 5:52 PM EST
Nautical Twilight 6:45 AM EST 6:25 PM EST
Astronomical Twilight 6:13 AM EST 6:57 PM EST
Moon 1:36 PM EST (12/22) 2:35 AM EST (12/22)
Length of Visible Light 10h 35m
Length of Day
9h 36m
Waxing Gibbous, 73% of the Moon is Illuminated
Dec 22
Waxing Gibbous
Dec 28
Full
Jan 4
Last Quarter
Jan 11
New
Jan 18
First Quarter

Hourly Weather History & Observations

Time (EST) Temp. Windchill Dew Point Humidity Pressure Visibility Wind Dir Wind Speed Gust Speed Precip Events Conditions
12:53 AM 27.0 °F 19.5 °F 17.1 °F 66% 30.18 in 10.0 mi West 6.9 mph - N/A   Overcast
1:53 AM 25.0 °F 19.3 °F 16.0 °F 69% 30.19 in 10.0 mi West 4.6 mph - N/A   Clear
2:53 AM 26.1 °F 16.8 °F 17.1 °F 69% 30.22 in 10.0 mi WNW 9.2 mph - N/A   Overcast
3:26 AM 26.6 °F 19.1 °F 17.6 °F 69% 30.20 in 10.0 mi West 6.9 mph - N/A   Overcast
4:53 AM 26.1 °F 17.6 °F 17.1 °F 69% 30.24 in 10.0 mi West 8.1 mph - N/A   Overcast
5:53 AM 24.1 °F 16.0 °F 17.1 °F 75% 30.25 in 10.0 mi West 6.9 mph - N/A   Mostly Cloudy
6:16 AM 24.8 °F 17.9 °F 17.6 °F 74% 30.23 in 10.0 mi West 5.8 mph - N/A   Scattered Clouds
6:36 AM 24.8 °F 19.1 °F 17.6 °F 74% 30.23 in 10.0 mi WSW 4.6 mph - N/A   Mostly Cloudy
6:43 AM 24.8 °F 19.1 °F 17.6 °F 74% 30.23 in 10.0 mi WSW 4.6 mph - N/A   Scattered Clouds
7:53 AM 21.9 °F - 16.0 °F 78% 30.29 in 10.0 mi Calm Calm - N/A   Clear
8:53 AM 23.0 °F 17.0 °F 17.1 °F 78% 30.31 in 10.0 mi WSW 4.6 mph - N/A   Clear
9:53 AM 26.1 °F 16.8 °F 18.0 °F 71% 30.32 in 10.0 mi West 9.2 mph - N/A   Clear
10:53 AM 28.9 °F 21.9 °F 19.0 °F 67% 30.33 in 10.0 mi WSW 6.9 mph - N/A   Clear
11:53 AM 30.9 °F 24.3 °F 19.0 °F 61% 30.30 in 10.0 mi WSW 6.9 mph - N/A   Clear
12:53 PM 33.1 °F 30.0 °F 19.9 °F 59% 30.26 in 10.0 mi SSW 3.5 mph - N/A   Clear
1:53 PM 35.1 °F 29.3 °F 19.9 °F 54% 30.25 in 10.0 mi Variable 6.9 mph - N/A   Clear
2:53 PM 37.9 °F 32.7 °F 19.0 °F 47% 30.22 in 10.0 mi WNW 6.9 mph - N/A   Clear
3:53 PM 37.9 °F 32.7 °F 18.0 °F 45% 30.22 in 10.0 mi SW 6.9 mph - N/A   Clear
4:53 PM 37.9 °F 33.5 °F 17.1 °F 43% 30.22 in 10.0 mi SW 5.8 mph - N/A   Clear
5:53 PM 36.0 °F 32.1 °F 16.0 °F 44% 30.22 in 10.0 mi SW 4.6 mph - N/A   Clear
6:53 PM 30.0 °F - 19.0 °F 64% 30.22 in 10.0 mi Calm Calm - N/A   Clear
7:53 PM 28.0 °F - 19.9 °F 72% 30.22 in 10.0 mi Calm Calm - N/A   Clear
8:53 PM 28.0 °F - 19.0 °F 69% 30.21 in 10.0 mi Calm Calm - N/A   Clear
9:53 PM 26.1 °F - 19.9 °F 78% 30.20 in 10.0 mi Calm Calm - N/A   Clear
10:53 PM 25.0 °F - 19.9 °F 81% 30.18 in 10.0 mi Calm Calm - N/A   Clear
11:53 PM 25.0 °F - 19.9 °F 81% 30.16 in 10.0 mi Calm Calm - N/A   Clear